This is the latest recevied weather packets stored in our database for station/object DL1MMS-10. If no packets are shown the sender has not sent any weather packets the latest 1 day(s).
| Time | Temp. | Humidity | Pressure | Rain* | Wind** | Luminosity | Snow |
|---|---|---|---|---|---|---|---|
| 1778031520 | 7.22° C | 85% | 1009.7 hPa | 0 mm | - | - | - |
| 1778031220 | 7.22° C | 85% | 1009.8 hPa | 0 mm | - | - | - |
| 1778030919 | 7.22° C | 85% | 1009.8 hPa | 0 mm | - | - | - |
| 1778030619 | 7.22° C | 85% | 1009.8 hPa | 0 mm | - | - | - |
| 1778030319 | 7.22° C | 85% | 1009.7 hPa | 0 mm | - | - | - |
| 1778030019 | 7.22° C | 85% | 1009.9 hPa | 0 mm | - | - | - |
| 1778029718 | 6.67° C | 85% | 1010 hPa | 0 mm | - | - | - |
| 1778029418 | 6.67° C | 85% | 1010.3 hPa | 0 mm | - | - | - |
| 1778029118 | 6.67° C | 85% | 1010.3 hPa | 0 mm | - | - | - |
| 1778028517 | 6.67° C | 85% | 1010.4 hPa | 0 mm | - | - | - |
| 1778028217 | 6.11° C | 85% | 1010.4 hPa | 0 mm | - | - | - |
| 1778027917 | 6.11° C | 84% | 1010.5 hPa | 0 mm | - | - | - |
| 1778027316 | 6.11° C | 83% | 1010.4 hPa | 0 mm | - | - | - |
| 1778027016 | 6.67° C | 83% | 1010.4 hPa | 0 mm | - | - | - |
| 1778026716 | 6.67° C | 83% | 1010.4 hPa | 0 mm | - | - | - |
| 1778026115 | 7.22° C | 82% | 1010.4 hPa | 0 mm | - | - | - |
| 1778025815 | 7.22° C | 82% | 1010.5 hPa | 0 mm | - | - | - |
| 1778024614 | 7.78° C | 81% | 1010.6 hPa | 0 mm | - | - | - |
| 1778023713 | 7.78° C | 80% | 1010.5 hPa | 0 mm | - | - | - |
| 1778022512 | 8.33° C | 79% | 1010.6 hPa | 0 mm | - | - | - |
| 1778021611 | 8.89° C | 78% | 1010.7 hPa | 0 mm | - | - | - |
| 1778020710 | 9.44° C | 77% | 1010.9 hPa | 0 mm | - | - | - |
| 1778020410 | 9.44° C | 77% | 1010.8 hPa | 0 mm | - | - | - |
| 1778019509 | 9.44° C | 77% | 1011 hPa | 0 mm | - | - | - |
| 1778018308 | 9.44° C | 78% | 1010.8 hPa | 0 mm | - | - | - |
* Rain latest hour (hover to see other rain measurements)
** Current wind speed in m/s (hover to see current wind gust speed)